カタログに戻る

FENGYUN 1C DEB

LostSSO
NORAD 36661·DEBRIS·🇨🇳 China

打ち上げ May 10, 1999 から Taiyuan Satellite Launch Center

Loading…

次のパス (今後24時間)

TLE

古いSource: Space-Track

元期: Sep 20, 2022, 10:55 UTC

1 36661U 99025DYF 22263.45530274  .00002509  00000-0  11304-2 0  9999
2 36661  98.9251 338.1449 0025508 125.7480 299.5129 14.23000821713590

AllMySatでFENGYUN 1C DEBをリアルタイム追跡

Download on the App Store